Jackson Hawkins Field, MS

4:03 AM CST on January 16, 2018 (GMT -0600)
Hawkins

Weather History for KHKS - June, 2014

Change the Weather History Date:

Tuesday, June 3, 2014

  Actual Average (KJAN) Record (KJAN)
Temperature  
Mean Temperature 79 °F -  
Max Temperature 87 °F 88 °F 102 °F (1911)
Min Temperature 71 °F 65 °F 48 °F (1956)
Cooling Degree Days 14    
Growing Degree Days 29 (Base 50)    
Moisture  
Dew Point 68 °F    
Average Humidity 77    
Maximum Humidity 88    
Minimum Humidity 51    
Precipitation  
Precipitation 0.00 in - - ()
Sea Level Pressure  
Sea Level Pressure 30.04 in    
Wind  
Wind Speed 4 mph (ESE)    
Max Wind Speed 7 mph    
Max Gust Speed 37 mph    
Visibility 7 miles    
Events      
Averages and records for this station are not official NWS values.
T = Trace of Precipitation, MM = Missing Value Source: NWS Daily Summary

Daily Weather History Graph

Daily Weather History Graph

Search for Another Location

Airport or City:

Trip Planner

Search our weather history database for the weather conditions in past years. The results will help you decide how hot, cold, wet, or windy it might be!

Date:

Astronomy

Jun. 03, 2014 Rise Set
Actual Time 5:54 AM CDT 8:04 PM CDT
Civil Twilight 5:26 AM CDT 8:32 PM CDT
Nautical Twilight 4:52 AM CDT 9:06 PM CDT
Astronomical Twilight 4:15 AM CDT 9:43 PM CDT
Moon 11:05 AM CDT (6/3) No Moon Set
Length of Visible Light 15h 05m
Length of Day
14h 09m
Waxing Crescent, 30% of the Moon is Illuminated
Jun 3
Waxing Crescent
Jun 5
First Quarter
Jun 12
Full
Jun 19
Last Quarter
Jun 27
New

Hourly Weather History & Observations

Time (CDT) Temp. Heat Index Dew Point Humidity Pressure Visibility Wind Dir Wind Speed Gust Speed Precip Events Conditions
12:53 AM 73.0 °F - 68.0 °F 84% 30.05 in 9.0 mi Calm Calm - N/A   Clear
1:53 AM 73.0 °F - 69.1 °F 87% 30.04 in 8.0 mi East 4.6 mph - N/A   Clear
2:53 AM 73.0 °F - 66.9 °F 81% 30.04 in 9.0 mi SSE 5.8 mph - N/A   Clear
3:53 AM 71.1 °F - 66.9 °F 87% 30.03 in 8.0 mi SE 3.5 mph - N/A   Clear
4:53 AM 71.1 °F - 66.9 °F 87% 30.03 in 7.0 mi ESE 3.5 mph - N/A   Clear
5:18 AM 71.6 °F - 66.2 °F 83% 30.07 in 7.0 mi ESE 4.6 mph - N/A   Scattered Clouds
5:27 AM 71.6 °F - 68.0 °F 88% 30.07 in 6.0 mi ESE 4.6 mph - N/A   Mostly Cloudy
5:35 AM 71.6 °F - 68.0 °F 88% 30.07 in 5.0 mi SE 4.6 mph - N/A   Overcast
5:53 AM 72.0 °F - 68.0 °F 87% 30.04 in 4.0 mi ESE 3.5 mph - N/A   Overcast
6:07 AM 71.6 °F - 68.0 °F 88% 30.07 in 2.0 mi SE 3.5 mph - N/A   Overcast
6:24 AM 71.6 °F - 68.0 °F 88% 30.07 in 1.8 mi SE 4.6 mph - N/A   Overcast
6:48 AM 71.6 °F - 68.0 °F 88% 30.08 in 2.0 mi ESE 3.5 mph - N/A   Overcast
6:53 AM 72.0 °F - 68.0 °F 87% 30.05 in 1.8 mi SE 3.5 mph - N/A   Overcast
7:08 AM 71.6 °F - 68.0 °F 88% 30.08 in 2.0 mi ESE 3.5 mph - N/A   Overcast
7:18 AM 71.6 °F - 68.0 °F 88% 30.08 in 1.8 mi Calm Calm - N/A   Overcast
7:35 AM 71.6 °F - 68.0 °F 88% 30.08 in 2.5 mi SSE 4.6 mph - N/A   Overcast
7:53 AM 73.0 °F - 69.1 °F 87% 30.06 in 2.5 mi North - - N/A   Overcast
8:05 AM 73.4 °F - 69.8 °F 88% 30.09 in 4.0 mi North - - N/A   Overcast
8:33 AM 73.4 °F - 68.0 °F 83% 30.09 in 8.0 mi North - - N/A   Overcast
8:53 AM 73.9 °F - 68.0 °F 82% 30.07 in 9.0 mi North - - N/A   Overcast
9:53 AM 75.9 °F - 68.0 °F 76% 30.07 in 6.0 mi East 5.8 mph - N/A   Haze
10:22 AM 77.0 °F - 68.0 °F 74% 30.10 in 6.0 mi South 4.6 mph - N/A   Haze
10:53 AM 78.1 °F - 68.0 °F 71% 30.08 in 8.0 mi ESE 5.8 mph - N/A   Overcast
11:17 AM 78.8 °F - 68.0 °F 69% 30.10 in 10.0 mi ESE 4.6 mph - N/A   Overcast
11:53 AM 80.1 °F 82.7 °F 68.0 °F 67% 30.06 in 10.0 mi Calm Calm - N/A   Mostly Cloudy
12:24 PM 82.4 °F 85.4 °F 68.0 °F 62% 30.08 in 10.0 mi ESE 4.6 mph 36.8 mph N/A   Squalls
12:53 PM 82.9 °F 86.5 °F 69.1 °F 63% 30.05 in 10.0 mi North - - N/A   Scattered Clouds
1:53 PM 84.0 °F 87.0 °F 68.0 °F 58% 30.03 in 10.0 mi ESE 4.6 mph - N/A   Mostly Cloudy
2:53 PM 84.9 °F 88.2 °F 68.0 °F 57% 30.00 in 10.0 mi East 4.6 mph - N/A   Scattered Clouds
3:53 PM 87.1 °F 89.9 °F 66.9 °F 51% 29.99 in 10.0 mi NE 3.5 mph - N/A   Scattered Clouds
4:53 PM 84.9 °F 87.1 °F 66.0 °F 53% 29.97 in 10.0 mi North - - N/A   Scattered Clouds
5:53 PM 87.1 °F 90.6 °F 68.0 °F 53% 29.95 in 10.0 mi ESE 3.5 mph - N/A   Mostly Cloudy
6:53 PM 86.0 °F 88.2 °F 66.0 °F 51% 29.95 in 10.0 mi SE 5.8 mph - N/A   Scattered Clouds
7:53 PM 80.1 °F 82.7 °F 68.0 °F 67% 29.97 in 10.0 mi SE 6.9 mph - N/A   Mostly Cloudy
8:53 PM 75.9 °F - 68.0 °F 76% 29.98 in 10.0 mi SSE 4.6 mph - N/A   Partly Cloudy
10:53 PM 73.9 °F - 68.0 °F 82% 29.98 in 10.0 mi SSE 4.6 mph - N/A   Partly Cloudy